Weather Roundup
Issued by NWS

Home | Current Version | Previous Version | Text Only | Print | Product List | Glossary On
Versions: 1 2 3 4 5 6 7 8 9 10 11 12 13 14 15 16 17 18 19 20 21 22 23 24 25 26 27 28 29 30 31 32 33 34 35 36 37 38 39 40 41 42 43 44 45 46 47 48 49 50
000
NZUS93 KARX 271259
HRRWXR

CURRENT HOURLY OBSERVATIONS ACROSS
MUCH OF THE UPPER MISSISSIPPI VALLEY
NATIONAL WEATHER SERVICE LA CROSSE WI
800 AM CDT FRI MAY 27 2016


...SOUTHEAST MINNESOTA...


CITY           SKY/WX    TMP DP  RH WIND       PRES   REMARKS
ROCHESTER      CLOUDY    63  60  90 SE6       29.85S
ROCHESTER/MAYO CLOUDY    62  62  99 E7        29.85S
WINONA         LGT RAIN  63  61  94 E3        29.87R
AUSTIN         DRIZZLE   63  57  82 SE9G16    29.83R
ALBERT LEA     CLOUDY    66  57  72 SE12      29.80F
DODGE CENTER   CLOUDY    64  57  77 SE9       29.83S
PRESTON        LGT RAIN  61  58  89 CALM      29.85S
OWATONNA       CLOUDY    66  55  68 SE7       29.81S
FARIBAULT      CLOUDY    64  57  77 SE3       29.81S
$$

...ELSEWHERE IN MINNESOTA...


CITY           SKY/WX    TMP DP  RH WIND       PRES   REMARKS
MINNEAPOLIS    CLOUDY    66  58  75 SE8       29.80R
INTNL FALLS    MOSUNNY   58  53  84 CALM      29.82S
DULUTH         CLOUDY    58  52  80 SE8       29.85R
RED WING       NOT AVBL
REDWOOD FALLS  MOSUNNY   66  57  72 S6        29.74F
MANKATO        CLOUDY    64  55  72 SE15      29.78S
WORTHINGTON    CLOUDY    62  58  86 SE8       29.78S
FAIRMONT       CLOUDY    64  54  68 SE16      29.76F
$$

...SOUTHWEST WISCONSIN...


CITY           SKY/WX    TMP DP  RH WIND       PRES   REMARKS
LA CROSSE      LGT RAIN  66  63  90 N6        29.82F
PRAIRIE DU CHI CLOUDY    64  63  95 CALM      29.82R
BOSCOBEL       CLOUDY    66  63  90 NE3       29.84R
LONE ROCK      NOT AVBL
PLATTEVILLE    CLOUDY    65  64  97 SE6       29.86R
FORT MC COY    DRIZZLE   64  62  94 CALM      29.85F
CAMP DOUGLAS   LGT RAIN  64  64 100 W2        29.82F
MAUSTON-NEW LI DRIZZLE   63  62  96 N3        29.82F
VIROQUA        CLOUDY    63  62  98 E8        29.84S
WIS DELLS      CLOUDY    62  60  92 CALM      29.86S
$$

...ELSEWHERE IN WISCONSIN...


CITY           SKY/WX    TMP DP  RH WIND       PRES   REMARKS
MILWAUKEE      PTSUNNY   72  67  84 SW5       29.86F
MADISON        CLOUDY    66  63  90 CALM      29.86R
GREEN BAY      SUNNY     71  61  70 CALM      29.87F
EAU CLAIRE     NOT AVBL
BLACK RVR FLS  PTSUNNY   61  61  99 CALM      29.86R
MEDFORD        CLOUDY    62  59  89 E3        29.88R
WAUSAU         MOSUNNY   66  59  78 CALM      29.87R
WIS RAPIDS     CLOUDY    65  59  81 SE3       29.89R
MARSHFIELD       N/A     64  58  80 NE3       29.87R
RICE LAKE      LGT RAIN  61  57  87 CALM      29.87F
$$

...NORTHEAST IOWA...


CITY           SKY/WX    TMP DP  RH WIND       PRES   REMARKS
WATERLOO       CLOUDY    64  60  87 E6        29.80F
DUBUQUE        CLOUDY    65  62  90 E7        29.85R
DECORAH        CLOUDY    63  63 100 N7        29.81F
MASON CITY     CLOUDY    65  60  84 SE13      29.82S
CHARLES CITY   CLOUDY    63  63 100 SE5       29.83S FOG
OELWEIN        CLOUDY    64  63  94 CALM      29.83R
$$

...ELSEWHERE IN IOWA...


CITY           SKY/WX    TMP DP  RH WIND       PRES   REMARKS
DES MOINES     LGT RAIN  64  60  87 NE7       29.74F
IOWA CITY      CLOUDY    66  62  87 E5        29.82F
FORT DODGE     CLOUDY    63  55  77 E10       29.79R
MARSHALLTOWN   CLOUDY    64  61  90 E12       29.78F
CEDAR RAPIDS   CLOUDY    65  62  90 E7        29.80F
$$

...NORTHERN ILLINOIS...


CITY           SKY/WX    TMP DP  RH WIND       PRES   REMARKS
CHICAGO-OHARE  CLOUDY    71  65  81 S10       29.89R
CHICAGO-MIDWAY CLOUDY    71  63  75 S13       29.90R
MOLINE         CLOUDY    68  63  84 SE8       29.84R
ROCKFORD       LGT RAIN  70  64  81 S7        29.90R
PEORIA         CLOUDY    70  64  81 S10       29.89S
$$

NOTE: "FAIR" INDICATES FEW OR NO CLOUDS BELOW 12,000 FEET WITH NO
SIGNIFICANT WEATHER AND/OR OBSTRUCTIONS TO VISIBILITY. WIND
SPEEDS ARE IN MILES-PER-HOUR.




USA.gov is the U.S. government's official web portal to all federal, state and local government web resources and services.